Flag Weather past 2 weeks in Barnstable, Massachusetts, U.S.A.

Now
26 °F

Clear.


Feels Like: 19 °F
Forecast: 23 / 36 °F
Wind: 6 mph from Northwest

Location: Barnstable Municipal-Boardman Airport

Current Time: Nov 29, 2014 at 3:03:51 AM

Latest Report: Nov 29, 2014 at 1:56 AM


Visibility: 10 mi

Pressure: 30.23 "Hg

Humidity: 71%

Dew point: 18 °F

Location of BarnstableLocation

Historic Weather in Barnstable — Graph

°F

Barnstable temperature yesterday

Maximum temperature yesterday: 35 °F (at 3:56 AM)
Minimum temperature yesterday: 27 °F (at 11:56 PM)
Average temperature yesterday: 33 °F

Past Weeks' High & Low Weather Summary

 TemperatureHumidityPressure
High62 °F (Nov 24, 10:56 PM)97% (Nov 17, 7:56 PM)30.44 "Hg (Nov 17, 7:56 PM)
Low22 °F (Nov 16, 3:56 AM)31% (Nov 19, 12:56 PM)29.41 "Hg (Nov 17, 10:56 PM)
Average42 °F69%29.99 "Hg
* Reported Nov 14 1:56 AM — Nov 29 1:56 AM, Barnstable, Weather by CustomWeather, © 2014

Note: Actual official high and low records may vary slightly from our data, if they occured in-between our weather recording intervals... More about our weather records

Advertising

Barnstable weather history for previous 24 hours

 ConditionsComfort  
Time TempWeatherWind HumidityBarometerVisibility
1:56 AM
Nov 29
26 °FClear.6 mph71%30.23 "Hg10 mi
12:56 AM26 °FClear.8 mph71%30.21 "Hg10 mi
11:56 PM
Nov 28
27 °FClear.9 mph69%30.19 "Hg10 mi
10:56 PM28 °FClear.9 mph66%30.18 "Hg10 mi
9:56 PM29 °FClear.9 mph64%30.17 "Hg10 mi
8:56 PM30 °FClear.8 mph61%30.16 "Hg10 mi
7:56 PM31 °FPassing clouds.8 mph57%30.15 "Hg10 mi
6:56 PM32 °FClear.10 mph54%30.14 "Hg10 mi
5:56 PM34 °FPassing clouds.15 mph52%30.11 "Hg10 mi
4:56 PM34 °FOvercast.13 mph54%30.09 "Hg10 mi
3:56 PM35 °FPartly sunny.10 mph56%30.06 "Hg10 mi
2:56 PM35 °FPartly sunny.15 mph61%30.03 "Hg10 mi
1:56 PM34 °FMostly cloudy.13 mph70%30.02 "Hg10 mi
12:56 PM32 °FLight snow. Mostly cloudy.16 mph75%30.01 "Hg4 mi
11:56 AM34 °FMostly cloudy.21 mph70%30.00 "Hg10 mi
11:03 AM33 °FMostly cloudy.15 mph88%29.98 "Hg10 mi
10:56 AM33 °FLow clouds.17 mph88%29.98 "Hg10 mi
9:56 AM33 °FLight snow. Fog.14 mph92%29.99 "Hg1 mi
8:56 AM33 °FLight snow. Fog.15 mph92%29.98 "Hg4 mi
7:56 AM34 °FFog.14 mph92%29.96 "Hg6 mi
6:56 AM35 °FLight rain. Fog.14 mph92%29.93 "Hg3 mi
5:56 AM35 °FLow clouds.12 mph92%29.92 "Hg10 mi
4:56 AM34 °FLow clouds.12 mph92%29.93 "Hg10 mi
3:56 AM35 °FLow clouds.6 mph92%29.92 "Hg10 mi
Weather by CustomWeather, © 2014

See weather overviewHow to use our weather pages